[[{"header":{"parameterUnit":"m.s-1","parameterCategory":1,"la1":30.2992,"la2":30.254,"lo1":-89.0895,"lo2":-89.0443,"dy":0.0025,"dx":0.0025,"nx":19,"ny":19,"refTime":"2026-04-28T09:00:00:Z","depth":0,"parameterNumber":2,"parameterNumberName":"U-component_of_WINDS"},"data":[0,0,0,2.1632,2.1634,2.1706,2.1707,2.1803,2.1804,0,0,0,0,0,0,0,0,0,0,0,2.1614,2.1615,2.1632,2.1634,2.1706,2.1707,2.1803,2.1804,0,0,0,0,0,0,0,0,0,0,0,2.1613,2.1614,2.1615,2.1634,2.1706,2.1707,2.1803,2.1747,0,0,0,0,0,0,0,0,0,0,2.1675,2.1662,2.1614,2.1615,2.1635,2.1706,2.1707,2.1744,2.175,2.1772,0,2.1794,0,2.1801,2.1811,2.1811,0,0,0,2.1631,2.1657,2.1673,2.1616,2.1635,2.1706,2.1673,2.1747,2.1754,2.1781,2.1795,2.1799,2.1802,2.1812,2.1812,2.1949,2.1949,0,0,2.1627,2.1629,2.1669,2.1678,2.1668,2.1671,2.1675,2.1751,2.1767,2.1795,2.1801,2.1804,2.1812,2.1813,2.1948,2.1949,0,0,0,2.1617,2.1626,2.1641,2.1674,2.1687,2.1673,2.1678,2.1764,2.1768,2.1802,2.1805,2.1813,2.1814,2.1947,2.1948,2.1986,0,0,0,2.1615,2.162,2.1639,2.1641,2.1686,2.1727,2.1689,2.1763,2.1772,2.1804,2.1813,2.1815,2.1946,2.1948,2.1983,2.2003,0,0,0,2.1608,2.1619,2.1631,2.164,2.1672,2.1725,2.1734,2.1765,2.1774,2.1811,2.1815,2.1946,2.1948,2.1981,2.1999,2.2038,0,0,0,2.1601,2.1665,2.1632,2.1704,2.1671,2.1748,2.1734,2.1791,2.1828,2.1813,2.1947,2.1948,2.198,2.1997,2.2035,2.207,2.2085,0,0,2.1682,2.1675,2.1717,2.169,2.1773,2.1737,2.1826,2.1859,2.1861,2.1919,2.1922,2.1984,2.1999,2.2037,2.2171,2.2183,0,0,0,2.1743,2.1774,2.1795,2.183,2.1857,2.188,2.1899,2.191,2.1959,2.1892,2.2009,2.2018,2.2041,2.2057,2.2067,2.2085,2.1956,2.1956,2.1956,2.186,2.1859,2.1928,2.1935,2.1969,2.1987,2.2014,2.2032,2.2023,2.205,2.2067,2.2148,2.2168,2.2175,2.2194,2.2087,2.2087,2.2087,2.2087,2.1978,2.202,2.2003,2.2064,2.2062,2.2113,2.2132,2.2122,2.2169,2.2136,2.2156,2.2119,2.2188,2.2205,2.209,2.2089,2.2089,2.2089,2.2089,2.2053,2.2073,2.2086,2.2134,2.2172,2.2177,2.2221,2.2218,2.2216,2.2235,2.2251,2.225,2.2248,2.2243,2.2243,2.2244,2.2244,2.2244,2.2244,2.2125,2.2139,2.2177,2.2208,2.2229,2.2256,2.2273,2.2293,2.2314,2.2308,2.2308,2.2294,2.2196,2.217,2.2249,2.2248,2.2247,2.2247,2.2247,2.2242,2.2215,2.2274,2.2294,2.233,2.2366,2.2361,2.2402,2.2418,2.2439,2.242,2.2349,2.2341,2.2333,2.2312,2.2422,2.2422,2.2422,2.2422,2.2304,2.23,2.2358,2.2391,2.2423,2.2424,2.2488,2.2501,2.251,2.2519,2.2503,2.2475,2.2467,2.2464,2.2453,2.2433,2.2571,2.2571,2.2571,2.2375,2.2373,2.2429,2.2438,2.2465,2.2487,2.2547,2.2584,2.2589,2.2577,2.2526,2.252,2.2474,2.246,2.2447,2.243,2.2393,0,0]},{"header":{"parameterUnit":"m.s-1","parameterCategory":1,"la1":30.2992,"la2":30.254,"lo1":-89.0895,"lo2":-89.0443,"dy":0.0025,"dx":0.0025,"nx":19,"ny":19,"refTime":"2026-04-28T09:00:00:Z","depth":0,"parameterNumber":3,"parameterNumberName":"V-component_of_WINDS"},"data":[0,0,0,3.833,3.833,3.833,3.833,3.8338,3.8339,0,0,0,0,0,0,0,0,0,0,0,3.8335,3.8336,3.8329,3.833,3.833,3.833,3.8338,3.8339,0,0,0,0,0,0,0,0,0,0,0,3.8335,3.8336,3.8336,3.833,3.833,3.833,3.8338,3.8335,0,0,0,0,0,0,0,0,0,0,3.8333,3.8345,3.8335,3.8336,3.833,3.833,3.833,3.8335,3.8335,3.8342,0,3.8351,0,3.8345,3.834,3.834,0,0,0,3.8325,3.8344,3.8339,3.8336,3.833,3.833,3.8328,3.8335,3.8336,3.8343,3.8351,3.8351,3.8345,3.834,3.834,3.8396,3.8396,0,0,3.8325,3.8339,3.8339,3.834,3.8341,3.8328,3.8329,3.8335,3.8344,3.8351,3.8351,3.8345,3.834,3.834,3.8395,3.8396,0,0,0,3.8328,3.8339,3.8333,3.834,3.8339,3.8329,3.8329,3.8344,3.8341,3.8351,3.8345,3.834,3.834,3.8395,3.8395,3.8431,0,0,0,3.8328,3.834,3.8333,3.8341,3.8339,3.8342,3.8337,3.834,3.8341,3.8345,3.834,3.834,3.8394,3.8395,3.8429,3.8446,0,0,0,3.8333,3.8341,3.8343,3.8342,3.8343,3.8341,3.8338,3.834,3.8338,3.834,3.834,3.8394,3.8395,3.8427,3.8442,3.8463,0,0,0,3.8343,3.8375,3.8344,3.8378,3.8343,3.8364,3.8338,3.8353,3.8359,3.834,3.8394,3.8395,3.8426,3.8441,3.8461,3.8483,3.8493,0,0,3.8391,3.8382,3.8401,3.8372,3.8402,3.8363,3.8397,3.839,3.8378,3.839,3.8391,3.843,3.8442,3.8463,3.8548,3.8557,0,0,0,3.842,3.8434,3.8439,3.8446,3.8441,3.8438,3.8424,3.8422,3.8431,3.8388,3.8443,3.845,3.8461,3.8471,3.8478,3.8487,3.84,3.84,3.84,3.8508,3.8491,3.852,3.8503,3.8509,3.8494,3.8498,3.8491,3.8472,3.8485,3.8489,3.8543,3.8554,3.856,3.8569,3.8499,3.8499,3.8499,3.85,3.8577,3.8593,3.8566,3.8585,3.8566,3.8582,3.8568,3.8554,3.8565,3.8539,3.8548,3.8521,3.857,3.8576,3.8502,3.8502,3.8501,3.8501,3.8501,3.8631,3.8636,3.8632,3.8639,3.8646,3.8627,3.8638,3.8621,3.8605,3.8614,3.8615,3.8614,3.861,3.8616,3.8616,3.8616,3.8616,3.8616,3.8616,3.869,3.8684,3.8696,3.8693,3.8695,3.8694,3.8679,3.8679,3.8675,3.8661,3.8661,3.864,3.8578,3.8562,3.8619,3.8619,3.8618,3.8618,3.8618,3.8765,3.8745,3.8764,3.8765,3.8759,3.8767,3.8744,3.8747,3.8744,3.875,3.8727,3.8684,3.8673,3.8667,3.8654,3.8732,3.8732,3.8732,3.8732,3.881,3.8803,3.8818,3.8821,3.8821,3.8803,3.8823,3.8811,3.8796,3.8793,3.8779,3.876,3.8755,3.8747,3.8739,3.8727,3.8821,3.8821,3.8821,3.8855,3.8847,3.8868,3.8853,3.8847,3.8842,3.886,3.8864,3.8842,3.8824,3.879,3.8786,3.8756,3.8747,3.8728,3.8717,3.8693,0,0]}]]